Mitchell, SD

8:08 PM CST on November 19, 2019 (GMT -0600)
Mitchell Municipal

Weather History for KMHE - September, 2019

Change the Weather History Date:

Wednesday, September 18, 2019

  Actual Average Record
Temperature  
Mean Temperature 72 °F 62 °F  
Max Temperature 80 °F 75 °F 100 °F (1940)
Min Temperature 63 °F 48 °F 26 °F (1901)
Degree Days  
Heating Degree Days 0 5  
Month to date heating degree days 5 54  
Since 1 July heating degree days 14 71  
Cooling Degree Days 7 2  
Month to date cooling degree days 111 61  
Year to date cooling degree days 905 806  
Growing Degree Days 21 (Base 50)    
Moisture  
Dew Point 59 °F    
Average Humidity 67    
Maximum Humidity 87    
Minimum Humidity 47    
Precipitation  
Precipitation 0.00 in 0.07 in 2.33 in (1945)
Month to date precipitation 7.60 1.41  
Year to date precipitation 32.64 17.76  
Snow  
Snow 0.00 in - 0.00 in ()
Month to date snowfall 0.0  
Since 1 July snowfall 0.0  
Since 1 September snowfall 0.0  
Snow Depth 0.00 in    
Sea Level Pressure  
Sea Level Pressure 29.86 in    
Wind  
Wind Speed 7 mph (WSW)    
Max Wind Speed 15 mph    
Max Gust Speed 22 mph    
Visibility 10 miles    
Events      
T = Trace of Precipitation, MM = Missing Value Source: NWS Daily Summary

Daily Weather History Graph

Daily Weather History Graph

Search for Another Location

Airport or City:

Astronomy

Sep. 18, 2019 Rise Set
Actual Time 7:14 AM CDT 7:37 PM CDT
Civil Twilight 6:45 AM CDT 8:05 PM CDT
Nautical Twilight 6:11 AM CDT 8:39 PM CDT
Astronomical Twilight 5:36 AM CDT 9:14 PM CDT
Moon 10:04 PM CDT (9/18) 11:26 AM CDT (9/18)
Length of Visible Light 13h 20m
Length of Day
12h 22m
Waning Gibbous, 82% of the Moon is Illuminated
Sep 18
Waning Gibbous
Sep 21
Last Quarter
Sep 28
New
Oct 5
First Quarter
Oct 13
Full

Hourly Weather History & Observations

Time (CDT) Temp. Dew Point Humidity Pressure Visibility Wind Dir Wind Speed Gust Speed Precip Events Conditions
12:53 AM 77.0 °F 66.0 °F 69% 29.70 in 10.0 mi South 10.4 mph - N/A   Clear
1:53 AM 77.0 °F 64.9 °F 66% 29.70 in 10.0 mi South 12.7 mph - N/A   Clear
2:53 AM 75.9 °F 64.9 °F 69% 29.70 in 10.0 mi South 10.4 mph 20.7 mph N/A   Clear
3:53 AM 73.0 °F 64.9 °F 76% 29.71 in 10.0 mi WSW 10.4 mph - N/A   Clear
4:53 AM 71.1 °F 64.0 °F 78% 29.71 in 10.0 mi West 12.7 mph - N/A   Clear
5:53 AM 68.0 °F 61.0 °F 78% 29.76 in 10.0 mi WNW 11.5 mph - N/A   Clear
6:53 AM 64.9 °F 55.0 °F 70% 29.82 in 10.0 mi WNW 9.2 mph - N/A   Clear
7:53 AM 63.0 °F 52.0 °F 67% 29.86 in 10.0 mi WNW 9.2 mph - N/A   Clear
8:53 AM 66.0 °F 53.1 °F 63% 29.89 in 10.0 mi WNW 6.9 mph - N/A   Clear
9:53 AM 68.0 °F 53.1 °F 59% 29.91 in 10.0 mi WNW 9.2 mph - N/A   Clear
10:53 AM 71.1 °F 53.1 °F 53% 29.91 in 10.0 mi WNW 12.7 mph 20.7 mph N/A   Clear
11:53 AM 73.9 °F 54.0 °F 50% 29.91 in 10.0 mi West 12.7 mph 19.6 mph N/A   Clear
12:53 PM 75.0 °F 55.9 °F 51% 29.91 in 10.0 mi WSW 5.8 mph 17.3 mph N/A   Clear
1:53 PM 77.0 °F 55.9 °F 48% 29.91 in 10.0 mi SW 8.1 mph - N/A   Clear
2:53 PM 79.0 °F 57.0 °F 47% 29.91 in 10.0 mi West 8.1 mph - N/A   Clear
3:53 PM 79.0 °F 57.0 °F 47% 29.91 in 10.0 mi WSW 8.1 mph - N/A   Clear
4:53 PM 79.0 °F 57.0 °F 47% 29.90 in 10.0 mi WSW 5.8 mph - N/A   Clear
5:53 PM 79.0 °F 57.9 °F 48% 29.90 in 10.0 mi WSW 5.8 mph - N/A   Clear
6:53 PM 75.9 °F 60.1 °F 58% 29.91 in 10.0 mi WSW 3.5 mph - N/A   Clear
7:53 PM 71.1 °F 60.1 °F 68% 29.92 in 10.0 mi SSW 3.5 mph - N/A   Clear
8:53 PM 68.0 °F 60.1 °F 76% 29.93 in 10.0 mi South 4.6 mph - N/A   Clear
9:53 PM 66.0 °F 60.1 °F 81% 29.94 in 10.0 mi South 3.5 mph - N/A   Clear
10:53 PM 64.9 °F 60.1 °F 84% 29.94 in 10.0 mi Calm Calm - N/A   Clear
11:53 PM 64.9 °F 60.1 °F 84% 29.95 in 10.0 mi Calm Calm - N/A   Clear